This is the latest recevied weather packets stored in our database for station/object DB0OHA-13. If no packets are shown the sender has not sent any weather packets the latest 10 day(s).
| Time | Temp. | Humidity | Pressure | Rain* | Wind** | Luminosity | Snow |
|---|---|---|---|---|---|---|---|
| 1777938070 | 12.78° C | 1% | 1011.6 hPa | 0 mm | - | 0 W/m² | - |
| 1777937470 | 12.78° C | 1% | 1011.7 hPa | 0 mm | - | 0 W/m² | - |
| 1777936871 | 12.78° C | 1% | 1011.8 hPa | 0 mm | - | 0 W/m² | - |
| 1777936271 | 13.33° C | 1% | 1011.8 hPa | 0 mm | - | 0 W/m² | - |
| 1777935670 | 13.33° C | 1% | 1012.2 hPa | 0 mm | - | 0 W/m² | - |
| 1777934470 | 13.33° C | 1% | 1012 hPa | 0 mm | - | 0 W/m² | - |
| 1777933870 | 13.33° C | 1% | 1011.8 hPa | 0 mm | - | 0 W/m² | - |
| 1777933270 | 13.33° C | 1% | 1011.9 hPa | 0 mm | - | 0 W/m² | - |
| 1777932670 | 13.33° C | 1% | 1011.8 hPa | 0 mm | - | 0 W/m² | - |
| 1777932069 | 13.33° C | 1% | 1011.9 hPa | 0 mm | - | 0 W/m² | - |
| 1777931469 | 13.33° C | 1% | 1011.9 hPa | 0 mm | - | 0 W/m² | - |
| 1777930869 | 13.33° C | 1% | 1012 hPa | 0 mm | - | 0 W/m² | - |
| 1777930269 | 13.33° C | 1% | 1012.1 hPa | 0 mm | - | 0 W/m² | - |
| 1777929069 | 13.33° C | 1% | 1012.5 hPa | 0.51 mm | - | 0 W/m² | - |
| 1777928474 | 13.33° C | 1% | 1012.7 hPa | 0.51 mm | - | 0 W/m² | - |
| 1777927873 | 13.33° C | 1% | 1012.7 hPa | 0.76 mm | - | 0 W/m² | - |
| 1777927274 | 13.33° C | 1% | 1012.8 hPa | 1.52 mm | - | 0 W/m² | - |
| 1777926673 | 13.33° C | 1% | 1012.8 hPa | 2.03 mm | - | 0 W/m² | - |
| 1777926073 | 13.33° C | 1% | 1012.9 hPa | 2.29 mm | - | 0 W/m² | - |
| 1777925474 | 13.33° C | 1% | 1013 hPa | 2.29 mm | - | 0 W/m² | - |
| 1777924873 | 13.89° C | 1% | 1012.9 hPa | 2.29 mm | - | 0 W/m² | - |
| 1777924273 | 13.89° C | 1% | 1012.9 hPa | 2.79 mm | - | 0 W/m² | - |
| 1777923673 | 13.89° C | 1% | 1013 hPa | 2.29 mm | - | 0 W/m² | - |
| 1777923073 | 13.89° C | 1% | 1012.7 hPa | 2.29 mm | - | 0 W/m² | - |
| 1777921873 | 14.44° C | 1% | 1012.3 hPa | 1.52 mm | - | 0 W/m² | - |
* Rain latest hour (hover to see other rain measurements)
** Current wind speed in m/s (hover to see current wind gust speed)